Other Public Products
Issued by NWS Grand Forks, ND

Home | Current Version | Previous Version | Graphics & Text | Print | Product List | Glossary On
Versions: 1 2 3 4 5 6 7 8 9 10 11 12 13 14 15 16 17 18 19 20 21 22 23 24 25 26 27 28 29 30 31 32 33 34 35 36 37 38 39 40 41 42 43 44 45 46 47 48 49 50
000
FPUS83 KFGF 152231
OPUFGF
PRAIRIE TO PINES WEATHER ROUNDUP
NATIONAL WEATHER SERVICE EASTERN NORTH DAKOTA/GRAND FORKS ND
500 PM CDT TUE APR 15 2014

 **SATELLITE DATA USED TO AUGMENT SKY COVER AT AUTOMATED STATIONS**
 *****  WEATHER ACROSS EASTERN NORTH DAKOTA  *****

CITY           SKY/WX    TMP DP  RH WIND       PRES   REMARKS
GRAND FORKS    CLOUDY    31  12  45 SE12      29.97F WCI  22
GRAND FORKS AF MOSUNNY   30  10  43 E13       30.00F WCI  20
GRAND CITY NWS   N/A     32 N/A N/A E10         N/A  WCI  24
BUXTON           N/A     31  13  48 E10         N/A  WCI  22
DEVILS LAKE    CLOUDY    32  10  40 SE16      29.91S WCI  21
FARGO          PTSUNNY   34  13  41 SE15      29.99F WCI  24
WAHPETON ARPT  MOCLDY    32   7  34 SE12      29.98F WCI  23
$$

 *****  WEATHER ACROSS CENTRAL AND WESTERN NORTH DAKOTA  *****

CITY           SKY/WX    TMP DP  RH WIND       PRES   REMARKS
JAMESTOWN      CLOUDY    33  20  58 E17G29    29.87F WCI  22
BISMARCK       PTSUNNY   44  19  36 SE22      29.74F
MINOT          CLOUDY    36  17  46 E22G29    29.77F
MINOT AFB      CLOUDY    35  20  53 E21G31    29.77F WCI  24
GARRISON         N/A     41  19  41 SE17      29.72S
WILLISTON      CLOUDY    48  27  44 W23       29.61F
DICKINSON      MOSUNNY   53  21  28 SE17      29.55F
HETTINGER      SUNNY     57  21  24 SE12      29.56F
$$

 *****  OTHER OBSERVATIONS NORTHEAST NORTH DAKOTA  *****

CITY           SKY/WX    TMP DP  RH WIND       PRES   REMARKS
WALHALLA         N/A     28  12  50 SE12G18   30.01S WCI  18
LANGDON        FAIR      30  14  51 SE18      29.94S WCI  18
CAVALIER       FAIR      28  14  54 SE9       30.02S WCI  20
GRAFTON        FAIR      28  14  54 SE12      30.02S WCI  18
CANDO          CLOUDY    32  10  40 SE16G23   29.91S WCI  21
FORT TOTTEN    NOT AVBL
ROLLA          CLOUDY    28  12  50 S15       29.89S WCI  17
RUGBY          FAIR      32  16  51 SE16G25   29.85S WCI  21
 ***** THE ABOVE OBSERVATIONS ARE NON NWS ARE NOT QUALITY
        CONTROLLED AND MAY MIS-REPORT RAIN FOR SNOW...
$$

 *****  OTHER OBSERVATIONS SOUTHEAST NORTH DAKOTA *****

CITY           SKY/WX    TMP DP  RH WIND       PRES   REMARKS
COOPERSTOWN    MOCLDY    30  14  51 SE17G23   29.92F WCI  18
VALLEY CITY    NOT AVBL
OAKES          CLOUDY    36  16  44 E25       29.87F
GWINNER        CLOUDY    36  14  41 E18       29.92F
SHEYENNE NWR     N/A     36  12  36 SE12      29.95S
BUFFALO          N/A     32   6  34 SE16        N/A  WCI  21
WYNDMERE       NOT AVBL
 ***** THE ABOVE OBSERVATIONS ARE NON NWS ARE NOT QUALITY
       CONTROLLED AND MAY MIS-REPORT RAIN FOR SNOW...
$$

  *****  WEATHER ACROSS NORTHERN MINNESOTA  *****

CITY           SKY/WX    TMP DP  RH WIND       PRES   REMARKS
FLAG ISLAND    MOSUNNY   21   7  53 S7        30.05S WCI  13
WARROAD        SUNNY     25   7  46 E7        30.05S WCI  17
ROSEAU         SUNNY     28   3  34 N5        30.03F WCI  23
HALLOCK        CLOUDY    28  10  47 S3        30.03S
THF RVR FALLS  SUNNY     28   9  43 E6        30.02S WCI  22
HALSTAD          N/A     32   9  37 SE6         N/A
FOSSTON        MOSUNNY   34  16  47 CALM      30.00F
BAUDETTE       SUNNY     26   1  34 N5        30.05S WCI  20
WASKISH        SUNNY     28   7  40 W6        30.03S WCI  22
CROOKSTON      MOSUNNY   32   7  34 SE10      30.02S WCI  24
$$
  *****  WEATHER ACROSS CENTRAL AND WEST MINNESOTA  *****

CITY           SKY/WX    TMP DP  RH WIND       PRES   REMARKS
BEMIDJI        SUNNY     31  -3  23 E3        30.00S
PARK RAPIDS    PTSUNNY   32   1  26 SE7       29.98F
WADENA         SUNNY     32   7  34 E6        29.99S
DETROIT LAKES  MOSUNNY   32   5  32 S8        29.99F WCI  25
MOORHEAD       PTSUNNY   34   3  27 SE8       30.00S
FERGUS FALLS   PTSUNNY   34  -2  21 SE9G16    29.97F
ELBOW LAKE     MOCLDY    32   2  28 SE12      29.98F WCI  23
MORRIS MN      MOSUNNY   36   9  32 SE12      29.97F
STAPLES        MOSUNNY   34   1  25 SW3       30.01S
WHEATON        MOSUNNY   37  12  35 E14       29.99S
$$
  *****  WEATHER ELSEWHERE ACROSS MINNESOTA  *****

CITY           SKY/WX    TMP DP  RH WIND       PRES   REMARKS
DULUTH         SUNNY     30   2  30 NW9G17    30.01S WCI  22
INTRNTL FALLS  SUNNY     28   1  31 N6        30.03S WCI  22
ELY            SUNNY     27  -2  28 CALM      30.01R
CLOQUET        SUNNY     30  -4  22 SW6       30.02S WCI  24
BRAINERD       MOSUNNY   37  -4  17 N3        30.02F
HIBBING        SUNNY     31   0  26 VRB3      30.00F
ALEXANDRIA     CLOUDY    33   4  29 SE7       29.99F
SAINT CLOUD    SUNNY     35   2  24 W7        30.03F
MINNEAPOLIS    MOSUNNY   36   2  23 CALM      30.06F
$$

  *****  WEATHER ACROSS SOUTH DAKOTA  *****

CITY           SKY/WX    TMP DP  RH WIND       PRES   REMARKS
SIOUX FALLS    PTSUNNY   46  20  35 S22G31    29.88F
BROOKINGS      NOT AVBL
WATERTOWN      MOSUNNY   41  16  36 S16G25    29.86F
HURON          MOSUNNY   49  18  29 SE18G31   29.78F
SISSETON         N/A     35  15  44 SE17      29.92F WCI  25
ABERDEEN       MOSUNNY   45  17  32 SE17G30   29.82F
MITCHELL       SUNNY     52  26  36 S24G37    29.79F
PIERRE         MOSUNNY   64  24  21 SE17G25   29.60F
MOBRIDGE       PTSUNNY   53  20  27 SE23      29.65F
RAPID CITY     PTSUNNY   63  19  18 CALM      29.57F
$$

  *****  SOME WEATHER IN NEARBY STATES *****

CITY           SKY/WX    TMP DP  RH WIND       PRES   REMARKS
GLASGOW MT     PTSUNNY   59  18  20 NE5       29.50F
GREAT FALLS MT CLOUDY    46  38  73 W13       29.69S
CHEYENNE WY    MOSUNNY   52  17  25 W26G33    29.76F
SCOTTSBLUFF NE SUNNY     65  28  24 W22G29    29.68F
OMAHA NE       PTSUNNY   52  23  32 S16       29.98F
DES MOINES IA  MOSUNNY   45  18  34 S10       30.09F
DAVENPORT IA   SUNNY     40  15  36 W12G17    30.15S
CHICAGO IL     PTSUNNY   36  16  44 NW9       30.13F
EAU CLAIRE WI  SUNNY     36   5  27 W6        30.06F
LA CROSSE WI   SUNNY     38  10  31 NW6       30.09F
$$

  *****  SOME NATIONAL WEATHER *****

CITY           SKY/WX    TMP DP  RH WIND       PRES   REMARKS
LA GUARDIA NY  LGT RAIN  51  45  79 NW18      29.61R
RALEIGH NC     LGT RAIN  48  43  81 N12G25    29.71R
ATLANTA GA     PTSUNNY   47  33  58 NW21G30   29.96R
NEW ORLEANS LA PTSUNNY   60  31  33 N20G28    30.08S
OKLAHOMA CITY  MOSUNNY   65  12  12 S15G21    30.08F
ALBUQUERQUE NM PTSUNNY   64   9  11 S10       29.99F
SALT LAKE CITY PTSUNNY   69  14  12 W10G16    29.81F
LOS ANGELES CA MOSUNNY   62  52  69 W10       29.90F
BOISE ID       MOSUNNY   60  24  25 NW22G28   29.95F
SEATTLE WA     CLOUDY    57  30  35 SW12G18   30.16F
$$

*** WEATHER ACROSS MANITOBA...SASKATCHEWAN AND ONTARIO ***
                ***ONTARIO***

CITY           SKY/WX    TMP DP  RH WIND       PRES   REMARKS
GERALDTON      MOSUNNY   21   0  39 NW16      29.97R WCI   7
THUNDER BAY    MOSUNNY   30   0  27 NW15      30.02S WCI  19
SIOUX LOOKOUT  MOSUNNY   21  -2  35 NW8       30.02S WCI  12
TORONTO        PTSUNNY   27  16  63 NW25G31   29.95R WCI  11
BIG TROUT LK   PTSUNNY   14   0  52 NW13      30.01S WCI   0
PICKLE LAKE    PTSUNNY   19  -2  38 W9G20     29.96S WCI   9
DRYDEN         SUNNY     23  -2  33 W7G17     30.02S WCI  15
KENORA         MOSUNNY   25  -2  30 NW3       30.04S
$$
                *** MANITOBA***

CITY           SKY/WX    TMP DP  RH WIND       PRES   REMARKS
BRANDON        CLOUDY    30  14  51 E17       29.95S WCI  18
DAUPHIN        SUNNY     28  12  50 E21       29.99F WCI  15
ISLAND LAKE    SUNNY     23   5  46 N6        30.08R WCI  16
PILOT MOUND      N/A     30  10  43 SE15G23     N/A  WCI  19
THE PAS        MOSUNNY   25  -4  28 E9G20     30.08S WCI  15
THOMPSON       SUNNY     19   3  49 N5        30.14R WCI  13
WINNIPEG       MOSUNNY   28  12  50 N9        30.06F WCI  20
LYNN LAKE      SUNNY     18   0  45 N10       30.15S WCI   6
CHURCHILL      MOSUNNY    3  -2  78 NW21      30.21R WCI -18
GILLAM         MOSUNNY   14   1  57 NW10      30.15R WCI   1
$$
                ***SASKATCHEWAN***

CITY           SKY/WX    TMP DP  RH WIND       PRES   REMARKS
ESTEVAN        CLOUDY    37  18  44 SE17G23   29.71F
KINDERSLEY     PTSUNNY   41  21  45 NE18G28   29.73R
LLOYDMINSTER   CLOUDY    30  21  69 E14       29.85R WCI  20
PRINCE ALBERT  PTSUNNY   32  14  47 SE14      29.93S WCI  22
REGINA         CLOUDY    39  19  45 SE26G36   29.71S



USA.gov is the U.S. government's official web portal to all federal, state and local government web resources and services.